| time (UTC) | temp F | wind direction | speed MPH | gust MPH | rain 1hr in | rain 24hr in | rain mn in | humidity % | barometer mb |
| 20260502123041 | 36 | 252 | 1.0 | 4.0 | 0.00 | 0.01 | 0.00 | 82 | 1017.3 |
| 20260502121549 | 35 | 0 | 1.0 | 4.0 | 0.00 | 0.01 | 0.00 | 85 | 1017.2 |
| 20260502114555 | 34 | 263 | 1.0 | 2.0 | 0.00 | 0.01 | 0.00 | 91 | 1017.1 |
| 20260502113045 | 33 | 283 | 0.0 | 2.0 | 0.00 | 0.01 | 0.00 | 92 | 1017.0 |
| 20260502111559 | 31 | 257 | 0.0 | 1.0 | 0.00 | 0.01 | 0.00 | 92 | 1016.8 |
| 20260502110050 | 29 | 0 | 0.0 | 0.0 | 0.00 | 0.01 | 0.00 | 88 | 1016.7 |
| 20260502104552 | 30 | 0 | 0.0 | 0.0 | 0.00 | 0.01 | 0.00 | 88 | 1016.6 |
| 20260502103046 | 31 | 0 | 0.0 | 0.0 | 0.00 | 0.01 | 0.00 | 87 | 1016.6 |
| 20260502101550 | 32 | 0 | 0.0 | 0.0 | 0.00 | 0.01 | 0.00 | 87 | 1016.6 |
| 20260502100104 | 33 | 0 | 0.0 | 0.0 | 0.00 | 0.01 | 0.00 | 86 | 1016.4 |
| 20260502070046 | 36 | 102 | 0.0 | 3.0 | 0.00 | 0.01 | 0.00 | 83 | 1015.9 |
| 20260502064600 | 36 | 108 | 0.0 | 2.0 | 0.00 | 0.01 | 0.00 | 82 | 1016.0 |
| 20260502063042 | 37 | 107 | 0.0 | 1.0 | 0.00 | 0.01 | 0.00 | 82 | 1016.2 |
| 20260502061547 | 37 | 0 | 0.0 | 0.0 | 0.00 | 0.01 | 0.00 | 81 | 1016.3 |
| 20260502060053 | 37 | 0 | 0.0 | 1.0 | 0.00 | 0.01 | 0.00 | 80 | 1016.4 |
| 20260502054547 | 37 | 0 | 0.0 | 1.0 | 0.00 | 0.01 | 0.00 | 80 | 1016.4 |
| 20260502053044 | 37 | 0 | 0.0 | 1.0 | 0.00 | 0.01 | 0.00 | 79 | 1016.4 |
| 20260502051600 | 37 | 124 | 0.0 | 2.0 | 0.00 | 0.01 | 0.00 | 78 | 1016.4 |
| 20260502050044 | 37 | 109 | 0.0 | 2.0 | 0.00 | 0.01 | 0.00 | 77 | 1016.4 |
| 20260502044541 | 38 | 113 | 0.0 | 2.0 | 0.00 | 0.01 | 0.00 | 77 | 1016.2 |
| 20260502043050 | 38 | 106 | 1.0 | 3.0 | 0.00 | 0.01 | 0.00 | 77 | 1016.0 |
| 20260502041547 | 38 | 108 | 1.0 | 5.0 | 0.00 | 0.01 | 0.00 | 77 | 1016.1 |
| 20260502040045 | 38 | 108 | 1.0 | 4.0 | 0.00 | 0.01 | 0.00 | 76 | 1015.9 |
| 20260502034547 | 39 | 100 | 1.0 | 6.0 | 0.00 | 0.01 | 0.01 | 73 | 1015.9 |
| 20260502033050 | 41 | 265 | 1.0 | 4.0 | 0.00 | 0.01 | 0.01 | 69 | 1015.8 |
| 20260502031602 | 41 | 44 | 1.0 | 4.0 | 0.00 | 0.01 | 0.01 | 66 | 1015.5 |
| 20260502030049 | 42 | 285 | 1.0 | 3.0 | 0.00 | 0.01 | 0.01 | 65 | 1015.6 |
| 20260502024554 | 42 | 302 | 2.0 | 6.0 | 0.00 | 0.01 | 0.01 | 64 | 1015.6 |
| 20260502023044 | 42 | 270 | 2.0 | 7.0 | 0.00 | 0.01 | 0.01 | 65 | 1015.6 |
| 20260502021552 | 42 | 270 | 1.0 | 6.0 | 0.00 | 0.01 | 0.01 | 66 | 1015.5 |
| 20260502020103 | 42 | 236 | 0.0 | 7.0 | 0.00 | 0.01 | 0.01 | 65 | 1015.5 |
| 20260502014547 | 42 | 250 | 1.0 | 4.0 | 0.00 | 0.01 | 0.01 | 67 | 1015.3 |
| 20260502013054 | 42 | 245 | 0.0 | 4.0 | 0.00 | 0.01 | 0.01 | 66 | 1015.2 |
| 20260502011551 | 42 | 250 | 0.0 | 4.0 | 0.00 | 0.01 | 0.01 | 65 | 1015.1 |
| 20260502010049 | 43 | 296 | 0.0 | 3.0 | 0.00 | 0.01 | 0.01 | 65 | 1014.9 |
| 20260502004547 | 43 | 280 | 2.0 | 7.0 | 0.00 | 0.01 | 0.01 | 63 | 1014.9 |
| 20260502003045 | 43 | 238 | 1.0 | 5.0 | 0.00 | 0.01 | 0.01 | 65 | 1014.9 |
| 20260502001545 | 43 | 264 | 1.0 | 5.0 | 0.00 | 0.01 | 0.01 | 65 | 1014.7 |
| 20260502000051 | 43 | 262 | 3.0 | 6.0 | 0.00 | 0.01 | 0.01 | 66 | 1014.5 |
| 20260501234557 | 44 | 0 | 2.0 | 5.0 | 0.00 | 0.01 | 0.01 | 67 | 1014.5 |
| 20260501233104 | 44 | 266 | 1.0 | 5.0 | 0.00 | 0.01 | 0.01 | 65 | 1014.5 |
| 20260501231557 | 44 | 262 | 1.0 | 5.0 | 0.00 | 0.01 | 0.01 | 65 | 1014.3 |
| 20260501230049 | 45 | 257 | 2.0 | 6.0 | 0.00 | 0.01 | 0.01 | 65 | 1014.3 |
| 20260501224557 | 45 | 285 | 3.0 | 7.0 | 0.00 | 0.01 | 0.01 | 66 | 1014.4 |
| 20260501223055 | 45 | 256 | 4.0 | 8.0 | 0.00 | 0.01 | 0.01 | 62 | 1014.4 |
| 20260501221550 | 45 | 243 | 2.0 | 6.0 | 0.00 | 0.01 | 0.01 | 62 | 1014.2 |
| 20260501220052 | 45 | 238 | 1.0 | 9.0 | 0.00 | 0.01 | 0.01 | 62 | 1014.0 |
| 20260501214558 | 47 | 288 | 3.0 | 6.0 | 0.00 | 0.01 | 0.01 | 57 | 1013.8 |
| 20260501213051 | 47 | 262 | 2.0 | 6.0 | 0.00 | 0.01 | 0.01 | 57 | 1013.7 |
| 20260501211543 | 47 | 245 | 2.0 | 6.0 | 0.00 | 0.01 | 0.01 | 56 | 1013.5 |
| 20260501210052 | 47 | 237 | 2.0 | 5.0 | 0.00 | 0.01 | 0.01 | 56 | 1013.6 |
| 20260501204545 | 48 | 323 | 3.0 | 9.0 | 0.00 | 0.01 | 0.01 | 56 | 1013.5 |
| 20260501203045 | 48 | 250 | 2.0 | 9.0 | 0.00 | 0.01 | 0.01 | 52 | 1013.4 |
| 20260501201548 | 48 | 232 | 2.0 | 8.0 | 0.00 | 0.01 | 0.01 | 54 | 1013.4 |
| 20260501200043 | 47 | 226 | 2.0 | 7.0 | 0.00 | 0.01 | 0.01 | 59 | 1013.3 |
| 20260501194559 | 47 | 288 | 2.0 | 7.0 | 0.00 | 0.01 | 0.01 | 59 | 1013.4 |
| 20260501193048 | 49 | 313 | 1.0 | 4.0 | 0.00 | 0.01 | 0.01 | 52 | 1013.2 |
| 20260501191547 | 50 | 32 | 1.0 | 7.0 | 0.00 | 0.01 | 0.01 | 54 | 1013.1 |
| 20260501190054 | 49 | 54 | 2.0 | 6.0 | 0.00 | 0.01 | 0.01 | 55 | 1013.2 |
| 20260501184552 | 49 | 244 | 1.0 | 5.0 | 0.00 | 0.01 | 0.01 | 53 | 1013.0 |
| 20260501183049 | 49 | 64 | 2.0 | 6.0 | 0.00 | 0.01 | 0.01 | 52 | 1012.8 |
| 20260501181548 | 49 | 297 | 2.0 | 4.0 | 0.00 | 0.01 | 0.01 | 54 | 1012.8 |
| 20260501180057 | 48 | 263 | 2.0 | 4.0 | 0.00 | 0.01 | 0.01 | 54 | 1012.8 |
| 20260501174601 | 49 | 284 | 1.0 | 5.0 | 0.00 | 0.01 | 0.01 | 52 | 1012.7 |
| 20260501173104 | 48 | 282 | 1.0 | 6.0 | 0.00 | 0.01 | 0.01 | 55 | 1012.7 |
| 20260501171555 | 47 | 204 | 2.0 | 5.0 | 0.00 | 0.01 | 0.01 | 55 | 1012.8 |
| 20260501170053 | 48 | 246 | 1.0 | 5.0 | 0.00 | 0.01 | 0.01 | 57 | 1012.8 |
| 20260501164550 | 48 | 63 | 1.0 | 7.0 | 0.00 | 0.01 | 0.01 | 61 | 1012.8 |
| 20260501163045 | 47 | 0 | 1.0 | 4.0 | 0.00 | 0.01 | 0.01 | 64 | 1012.8 |
| 20260501161552 | 47 | 237 | 3.0 | 6.0 | 0.00 | 0.01 | 0.01 | 64 | 1012.9 |
| 20260501160055 | 48 | 31 | 0.0 | 5.0 | 0.00 | 0.01 | 0.01 | 68 | 1012.8 |
| 20260501154603 | 47 | 32 | 0.0 | 4.0 | 0.00 | 0.01 | 0.01 | 76 | 1012.9 |
| 20260501153055 | 47 | 14 | 1.0 | 5.0 | 0.00 | 0.01 | 0.01 | 77 | 1013.1 |
| 20260501151551 | 47 | 129 | 2.0 | 3.0 | 0.00 | 0.01 | 0.01 | 77 | 1013.1 |
| 20260501150047 | 46 | 43 | 0.0 | 4.0 | 0.00 | 0.01 | 0.01 | 82 | 1013.1 |
| 20260501144551 | 45 | 41 | 1.0 | 5.0 | 0.01 | 0.01 | 0.01 | 84 | 1013.2 |
| 20260501143048 | 44 | 39 | 1.0 | 4.0 | 0.01 | 0.01 | 0.01 | 86 | 1013.2 |
| 20260501141549 | 42 | 49 | 1.0 | 3.0 | 0.01 | 0.01 | 0.01 | 86 | 1013.1 |